Change the Weather History Date:

Monday, May 27, 2013

  Actual Average Record
Temperature  
Mean Temperature 58 °F -  
Max Temperature 73 °F 72 °F 88 °F (2007)
Min Temperature 44 °F 52 °F 44 °F (2013)
Degree Days  
Heating Degree Days 6    
Growing Degree Days 8 (Base 50)    
Moisture  
Dew Point 40 °F    
Average Humidity 51    
Maximum Humidity 79    
Minimum Humidity 28    
Precipitation  
Precipitation 0.00 in - - ()
Sea Level Pressure  
Sea Level Pressure 30.20 in    
Wind  
Wind Speed 4 mph (WSW)    
Max Wind Speed 12 mph    
Max Gust Speed 17 mph    
Visibility 10 miles    
Events      
Averages and records for this station are not official NWS values.
T = Trace of Precipitation, MM = Missing Value Source: NWS Daily Summary

Daily Weather History Graph

Daily Weather History Graph

Search for Another Location

Airport or City:

Trip Planner

Search our weather history database for the weather conditions in past years. The results will help you decide how hot, cold, wet, or windy it might be!

Date:

Astronomy

May. 27, 2013 Rise Set
Actual Time 5:33 AM EDT 8:17 PM EDT
Civil Twilight 5:02 AM EDT 8:49 PM EDT
Nautical Twilight 4:22 AM EDT 9:29 PM EDT
Astronomical Twilight 3:37 AM EDT 10:14 PM EDT
Moon 10:54 PM EDT (5/27) 8:08 AM EDT (5/27)
Length of Visible Light 15h 47m
Length of Day
14h 43m
Waning Gibbous, 91% of the Moon is Illuminated
May 27
Waning Gibbous
May 31
Last Quarter
Jun 8
New
Jun 16
First Quarter
Jun 23
Full

Hourly Weather History & Observations

Time (EDT) Temp. Dew Point Humidity Pressure Visibility Wind Dir Wind Speed Gust Speed Precip Events Conditions
1:55 AM 44.6 °F 38.5 °F 79% 30.22 in 10.0 mi Calm Calm - N/A   Clear
2:55 AM 44.6 °F 37.4 °F 76% 30.22 in 10.0 mi Calm Calm - N/A   Clear
3:55 AM 44.6 °F 37.4 °F 76% 30.22 in 10.0 mi WSW 2.3 mph - N/A   Clear
4:55 AM 44.6 °F 37.4 °F 76% 30.22 in 10.0 mi WSW 2.3 mph - N/A   Clear
5:55 AM 46.4 °F 39.2 °F 76% 30.23 in 10.0 mi North 1.2 mph - N/A   Clear
6:55 AM 48.2 °F 41.0 °F 76% 30.24 in 10.0 mi Calm Calm - N/A   Clear
7:58 AM 58.3 °F 40.6 °F 52% 30.26 in 10.0 mi WNW 1.2 mph - N/A   Unknown
8:58 AM 62.8 °F 35.8 °F 37% 30.26 in 10.0 mi West 4.6 mph - N/A   Clear
9:58 AM 64.9 °F 36.3 °F 35% 30.26 in 10.0 mi WNW 8.1 mph - N/A   Clear
10:55 AM 68.0 °F 39.2 °F 35% 30.25 in 10.0 mi WNW 5.8 mph - N/A   Partly Cloudy
11:58 AM 68.9 °F 37.4 °F 32% 30.24 in 10.0 mi WSW 9.2 mph - N/A   Clear
12:58 PM 70.3 °F 36.5 °F 29% 30.22 in 10.0 mi SW 8.1 mph 16.1 mph N/A   Partly Cloudy
1:58 PM 71.6 °F 37.4 °F 29% 30.20 in 10.0 mi West 8.1 mph - N/A   Partly Cloudy
2:58 PM 72.7 °F 37.9 °F 28% 30.16 in 10.0 mi WSW 9.2 mph 17.3 mph N/A   Partly Cloudy
3:58 PM 73.2 °F 38.7 °F 29% 30.16 in 10.0 mi SW 9.2 mph 16.1 mph N/A   Clear
4:58 PM 72.1 °F 38.5 °F 29% 30.14 in 10.0 mi WSW 11.5 mph - N/A   Clear
5:58 PM 70.9 °F 39.2 °F 32% 30.14 in 10.0 mi SW 11.5 mph - N/A   Clear
6:58 PM 68.5 °F 42.4 °F 39% 30.14 in 10.0 mi SW 8.1 mph - N/A   Clear
7:58 PM 64.2 °F 43.0 °F 46% 30.16 in 10.0 mi SSW 6.9 mph - N/A   Clear
8:58 PM 60.8 °F 43.9 °F 54% 30.16 in 10.0 mi SW 6.9 mph - N/A   Clear
9:58 PM 57.6 °F 45.9 °F 65% 30.17 in 10.0 mi South 6.9 mph - N/A   Clear
10:58 PM 55.6 °F 45.9 °F 70% 30.18 in 10.0 mi SSW 6.9 mph - N/A   Clear
11:58 PM 55.0 °F 45.9 °F 71% 30.20 in 10.0 mi SSW 5.8 mph - N/A   Clear